PJS458 EDDF-LFSB

Flight info

Callsign PJS458
Flight time 0h 39m
Altitude 19000
Route ANEKI2L/18 ANEKI Y163 PABLA T715 LIPKA/N0332F130 T715 RIGVI
Aircraft E50P/L-SBDFGRWY/LB2

Departure

Time 2026-05-05 17:56
Airport Frankfurt Main Airport (EDDF)

Arrival

Time 2026-05-05 18:35
Airport EuroAirport Basel–Mulhouse–Freiburg (LFSB)
Time Latitude Longitude Altitude Speed Heading
2026-05-05 17:21 50.03867 8.54788 349 ft 0 kts 160°
2026-05-05 17:49 50.03841 8.54803 351 ft 7 kts 160°
2026-05-05 17:49 50.03821 8.54814 345 ft 5 kts 159°
2026-05-05 17:49 50.03788 8.54824 346 ft 7 kts 196°
2026-05-05 17:50 50.03763 8.54754 350 ft 10 kts 250°
2026-05-05 17:50 50.03732 8.54627 348 ft 15 kts 249°
2026-05-05 17:50 50.03697 8.54484 347 ft 13 kts 249°
2026-05-05 17:50 50.03667 8.54357 346 ft 12 kts 249°
2026-05-05 17:51 50.03639 8.54244 346 ft 11 kts 252°
2026-05-05 17:51 50.03617 8.54141 349 ft 9 kts 250°
2026-05-05 17:51 50.03595 8.54052 346 ft 8 kts 250°
2026-05-05 17:51 50.03576 8.53972 348 ft 7 kts 249°
2026-05-05 17:52 50.03558 8.53899 346 ft 7 kts 249°
2026-05-05 17:52 50.03543 8.53834 348 ft 6 kts 252°
2026-05-05 17:52 50.03522 8.53745 346 ft 11 kts 249°
2026-05-05 17:52 50.03498 8.53645 347 ft 9 kts 250°
2026-05-05 17:53 50.03474 8.53544 353 ft 13 kts 249°
2026-05-05 17:53 50.03436 8.53390 346 ft 16 kts 248°
2026-05-05 17:53 50.03400 8.53236 349 ft 14 kts 249°
2026-05-05 17:53 50.03367 8.53098 345 ft 13 kts 250°
2026-05-05 17:54 50.03337 8.52974 347 ft 11 kts 250°
2026-05-05 17:54 50.03311 8.52866 349 ft 10 kts 249°
2026-05-05 17:54 50.03285 8.52762 348 ft 11 kts 249°
2026-05-05 17:54 50.03267 8.52693 349 ft 9 kts 239°
2026-05-05 17:55 50.03227 8.52629 347 ft 9 kts 212°
2026-05-05 17:55 50.03148 8.52597 346 ft 15 kts 182°
2026-05-05 17:55 50.02585 8.52603 349 ft 110 kts 179°
2026-05-05 17:55 50.01625 8.52610 451 ft 154 kts 180°
2026-05-05 17:56 50.00563 8.52671 1431 ft 161 kts 178°
2026-05-05 17:56 49.99758 8.52761 1789 ft 188 kts 179°
2026-05-05 17:56 49.98321 8.52807 2302 ft 224 kts 181°
2026-05-05 17:56 49.96665 8.52896 2817 ft 251 kts 179°
2026-05-05 17:57 49.94846 8.53037 3330 ft 271 kts 179°
2026-05-05 17:57 49.92911 8.53173 3845 ft 285 kts 179°
2026-05-05 17:57 49.90909 8.53308 4475 ft 288 kts 179°
2026-05-05 17:57 49.88915 8.53445 5209 ft 286 kts 179°
2026-05-05 17:58 49.86298 8.53625 6226 ft 282 kts 178°
2026-05-05 17:58 49.84976 8.53715 6722 ft 280 kts 178°
2026-05-05 17:58 49.83109 8.53840 7431 ft 277 kts 179°
2026-05-05 17:58 49.81166 8.53962 8199 ft 274 kts 180°
2026-05-05 17:59 49.79275 8.54081 8970 ft 271 kts 180°
2026-05-05 17:59 49.77412 8.54078 9545 ft 273 kts 187°
2026-05-05 17:59 49.75508 8.53783 10036 ft 277 kts 187°
2026-05-05 17:59 49.73573 8.53538 10532 ft 281 kts 186°
2026-05-05 18:00 49.71611 8.53293 11021 ft 284 kts 187°
2026-05-05 18:00 49.69629 8.53030 11529 ft 287 kts 187°
2026-05-05 18:00 49.67630 8.52763 12029 ft 290 kts 187°
2026-05-05 18:00 49.65614 8.52498 12542 ft 292 kts 187°
2026-05-05 18:01 49.63664 8.52239 13046 ft 294 kts 187°
2026-05-05 18:01 49.61645 8.51977 13566 ft 296 kts 187°
2026-05-05 18:01 49.59585 8.51707 14045 ft 298 kts 186°
2026-05-05 18:01 49.57512 8.51436 14522 ft 300 kts 186°
2026-05-05 18:02 49.55420 8.51153 14996 ft 302 kts 187°
2026-05-05 18:02 49.53330 8.50727 15484 ft 304 kts 189°
2026-05-05 18:02 49.51227 8.50341 15989 ft 306 kts 185°
2026-05-05 18:02 49.49096 8.50134 16509 ft 308 kts 183°
2026-05-05 18:03 49.48372 8.50072 16676 ft 309 kts 183°
2026-05-05 18:03 49.46949 8.49927 17010 ft 309 kts 184°
2026-05-05 18:03 49.44799 8.49652 17529 ft 310 kts 185°
2026-05-05 18:03 49.42642 8.49375 18052 ft 312 kts 185°
2026-05-05 18:04 49.40479 8.49118 18525 ft 312 kts 184°
2026-05-05 18:04 49.38298 8.48862 18825 ft 319 kts 184°
2026-05-05 18:04 49.36066 8.48600 18830 ft 333 kts 184°
2026-05-05 18:04 49.33714 8.48368 18823 ft 344 kts 183°
2026-05-05 18:05 49.31294 8.48189 18825 ft 352 kts 182°
2026-05-05 18:05 49.28937 8.48064 18833 ft 358 kts 182°
2026-05-05 18:05 49.26446 8.47943 18822 ft 359 kts 185°
2026-05-05 18:05 49.24059 8.46977 18821 ft 356 kts 205°
2026-05-05 18:06 49.21934 8.45091 18830 ft 350 kts 213°
2026-05-05 18:06 49.20600 8.43735 18817 ft 346 kts 213°
2026-05-05 18:06 49.17871 8.41213 18823 ft 339 kts 207°
2026-05-05 18:06 49.15749 8.39808 18820 ft 335 kts 201°
2026-05-05 18:07 49.13584 8.38573 18820 ft 330 kts 201°
2026-05-05 18:07 49.11478 8.37215 18817 ft 327 kts 204°
2026-05-05 18:07 49.09420 8.35780 18822 ft 324 kts 205°
2026-05-05 18:07 49.07367 8.34405 18833 ft 321 kts 203°
2026-05-05 18:08 49.05317 8.33079 18836 ft 319 kts 204°
2026-05-05 18:08 49.03289 8.31749 18841 ft 316 kts 204°
2026-05-05 18:08 49.01279 8.30416 18840 ft 314 kts 204°
2026-05-05 18:08 48.99283 8.29105 18841 ft 312 kts 204°
2026-05-05 18:09 48.97299 8.27804 18841 ft 310 kts 204°
2026-05-05 18:09 48.95325 8.26507 18840 ft 308 kts 204°
2026-05-05 18:09 48.93393 8.25239 18844 ft 306 kts 204°
2026-05-05 18:09 48.91443 8.23962 18844 ft 304 kts 204°
2026-05-05 18:10 48.89509 8.22696 18845 ft 303 kts 204°
2026-05-05 18:10 48.87580 8.21432 18848 ft 301 kts 204°
2026-05-05 18:10 48.85655 8.20173 18846 ft 304 kts 204°
2026-05-05 18:10 48.83692 8.18891 18849 ft 309 kts 204°
2026-05-05 18:11 48.81711 8.17601 18845 ft 311 kts 204°
2026-05-05 18:11 48.79715 8.16300 18844 ft 313 kts 204°
2026-05-05 18:11 48.77709 8.14992 18847 ft 315 kts 204°
2026-05-05 18:11 48.75720 8.13695 18846 ft 317 kts 204°
2026-05-05 18:12 48.73691 8.12375 18845 ft 318 kts 204°
2026-05-05 18:12 48.71651 8.11053 18848 ft 319 kts 204°
2026-05-05 18:12 48.69605 8.09726 18844 ft 320 kts 204°
2026-05-05 18:12 48.67555 8.08396 18846 ft 321 kts 204°
2026-05-05 18:13 48.65494 8.07061 18640 ft 326 kts 204°
2026-05-05 18:13 48.63381 8.05695 18039 ft 332 kts 204°
2026-05-05 18:13 48.61257 8.04320 17371 ft 332 kts 204°
2026-05-05 18:13 48.59215 8.02999 16732 ft 328 kts 204°
2026-05-05 18:14 48.57173 8.01681 16108 ft 322 kts 204°
2026-05-05 18:14 48.55163 8.00387 15492 ft 314 kts 204°
2026-05-05 18:14 48.53182 7.99111 14871 ft 306 kts 204°
2026-05-05 18:14 48.51244 7.97861 14279 ft 300 kts 205°
2026-05-05 18:15 48.49351 7.96644 13850 ft 290 kts 205°
2026-05-05 18:15 48.47567 7.95501 13847 ft 267 kts 205°
2026-05-05 18:15 48.45918 7.94443 13847 ft 249 kts 205°
2026-05-05 18:15 48.44372 7.93447 13842 ft 234 kts 205°
2026-05-05 18:16 48.42911 7.92511 13844 ft 224 kts 205°
2026-05-05 18:16 48.41542 7.91627 13843 ft 232 kts 205°
2026-05-05 18:16 48.40051 7.90671 13840 ft 239 kts 205°
2026-05-05 18:16 48.38500 7.89678 13840 ft 245 kts 205°
2026-05-05 18:17 48.36902 7.88689 13841 ft 253 kts 201°
2026-05-05 18:17 48.35135 7.88167 13834 ft 265 kts 189°
2026-05-05 18:17 48.33275 7.87875 13836 ft 272 kts 189°
2026-05-05 18:17 48.31434 7.87544 13836 ft 279 kts 189°
2026-05-05 18:18 48.29491 7.87208 13840 ft 281 kts 189°
2026-05-05 18:18 48.27571 7.86888 13842 ft 274 kts 189°
2026-05-05 18:18 48.25692 7.86571 13843 ft 269 kts 189°
2026-05-05 18:18 48.23986 7.86277 13845 ft 265 kts 189°
2026-05-05 18:19 48.22142 7.85961 13570 ft 270 kts 189°
2026-05-05 18:19 48.20353 7.85155 13157 ft 271 kts 212°
2026-05-05 18:19 48.19019 7.83201 12759 ft 272 kts 237°
2026-05-05 18:19 48.18327 7.80594 12376 ft 274 kts 254°
2026-05-05 18:20 48.17951 7.77817 11992 ft 269 kts 258°
2026-05-05 18:20 48.17597 7.75087 11616 ft 264 kts 255°
2026-05-05 18:20 48.17143 7.72443 11239 ft 260 kts 252°
2026-05-05 18:20 48.16661 7.69846 10886 ft 257 kts 253°
2026-05-05 18:21 48.16227 7.67357 10847 ft 244 kts 253°
2026-05-05 18:21 48.15805 7.64924 10846 ft 239 kts 253°
2026-05-05 18:21 48.15391 7.62539 10848 ft 235 kts 253°
2026-05-05 18:21 48.14977 7.60179 10847 ft 233 kts 253°
2026-05-05 18:22 48.14566 7.57834 10844 ft 234 kts 253°
2026-05-05 18:22 48.14151 7.55471 10845 ft 235 kts 253°
2026-05-05 18:22 48.13492 7.53264 10835 ft 234 kts 231°
2026-05-05 18:22 48.12248 7.51701 10832 ft 235 kts 216°
2026-05-05 18:23 48.10874 7.50357 10833 ft 237 kts 213°
2026-05-05 18:23 48.09440 7.49065 10832 ft 243 kts 212°
2026-05-05 18:23 48.07987 7.47781 10829 ft 249 kts 212°
2026-05-05 18:23 48.06514 7.46486 10831 ft 252 kts 212°
2026-05-05 18:24 48.04953 7.45112 10384 ft 267 kts 212°
2026-05-05 18:24 48.03356 7.43705 9910 ft 266 kts 212°
2026-05-05 18:24 48.01777 7.42314 9410 ft 260 kts 212°
2026-05-05 18:24 48.00233 7.40956 8887 ft 255 kts 212°
2026-05-05 18:25 47.98732 7.39637 8382 ft 247 kts 212°
2026-05-05 18:25 47.97756 7.38785 8039 ft 244 kts 212°
2026-05-05 18:25 47.95825 7.37106 7372 ft 237 kts 212°
2026-05-05 18:25 47.94351 7.36143 6858 ft 236 kts 196°
2026-05-05 18:26 47.92723 7.35837 6379 ft 235 kts 189°
2026-05-05 18:26 47.91128 7.35640 5884 ft 233 kts 188°
2026-05-05 18:26 47.89529 7.35460 5491 ft 227 kts 188°
2026-05-05 18:26 47.87951 7.35294 5246 ft 230 kts 188°
2026-05-05 18:27 47.86327 7.35126 4900 ft 237 kts 188°
2026-05-05 18:27 47.84677 7.35132 4519 ft 240 kts 177°
2026-05-05 18:27 47.83032 7.35606 4142 ft 240 kts 172°
2026-05-05 18:27 47.81429 7.36128 3999 ft 229 kts 172°
2026-05-05 18:28 47.78792 7.38158 3989 ft 209 kts 153°
2026-05-05 18:28 47.77585 7.39288 3985 ft 212 kts 153°
2026-05-05 18:28 47.76323 7.40474 3986 ft 216 kts 153°
2026-05-05 18:29 47.75048 7.41673 3985 ft 218 kts 153°
2026-05-05 18:29 47.73760 7.42884 3984 ft 220 kts 153°
2026-05-05 18:29 47.72413 7.44137 3536 ft 237 kts 153°
2026-05-05 18:29 47.70981 7.45448 3070 ft 246 kts 153°
2026-05-05 18:30 47.69536 7.46756 2578 ft 238 kts 153°
2026-05-05 18:30 47.68142 7.48005 2102 ft 230 kts 153°
2026-05-05 18:30 47.66795 7.49195 1798 ft 217 kts 152°
2026-05-05 18:30 47.65539 7.50257 1794 ft 200 kts 153°
2026-05-05 18:31 47.64382 7.51243 1786 ft 189 kts 147°
2026-05-05 18:31 47.63364 7.52387 1781 ft 179 kts 150°
2026-05-05 18:31 47.62414 7.53481 1786 ft 173 kts 128°
2026-05-05 18:31 47.62052 7.55131 1784 ft 170 kts 88°
2026-05-05 18:32 47.62298 7.56773 1785 ft 153 kts 76°
2026-05-05 18:32 47.62534 7.58234 1786 ft 145 kts 76°
2026-05-05 18:32 47.62756 7.59732 1781 ft 161 kts 77°
2026-05-05 18:32 47.62832 7.61401 1784 ft 166 kts 105°
2026-05-05 18:33 47.62157 7.62666 1784 ft 154 kts 154°
2026-05-05 18:33 47.61169 7.62732 1785 ft 145 kts 205°
2026-05-05 18:33 47.60541 7.61666 1787 ft 140 kts 254°
2026-05-05 18:33 47.60292 7.60274 1788 ft 140 kts 252°
2026-05-05 18:34 47.60006 7.58898 1785 ft 140 kts 254°
2026-05-05 18:34 47.59731 7.57510 1566 ft 140 kts 253°
2026-05-05 18:34 47.59465 7.56133 1339 ft 139 kts 258°
2026-05-05 18:34 47.59262 7.54723 1078 ft 139 kts 258°
2026-05-05 18:35 47.59072 7.53479 901 ft 106 kts 257°
2026-05-05 18:35 47.58947 7.52663 885 ft 51 kts 256°
2026-05-05 18:35 47.58889 7.52307 888 ft 33 kts 258°
2026-05-05 18:35 47.58841 7.51990 889 ft 30 kts 255°
2026-05-05 18:36 47.58811 7.51795 888 ft 12 kts 266°
2026-05-05 18:36 47.58848 7.51698 886 ft 6 kts 325°
2026-05-05 18:36 47.58877 7.51682 885 ft 5 kts 346°
2026-05-05 18:36 47.58917 7.51670 885 ft 5 kts 359°
2026-05-05 18:37 47.58923 7.51670 885 ft 0 kts
2026-05-05 18:37 47.58941 7.51675 885 ft 9 kts 20°
2026-05-05 18:37 47.59001 7.51747 885 ft 13 kts 45°
2026-05-05 18:37 47.59067 7.51849 885 ft 15 kts 46°
2026-05-05 18:38 47.59140 7.51958 885 ft 10 kts 46°
2026-05-05 18:38 47.59174 7.52008 885 ft 7 kts 44°
2026-05-05 18:38 47.59217 7.52073 885 ft 11 kts 46°
2026-05-05 18:38 47.59269 7.52170 885 ft 13 kts 63°
2026-05-05 18:39 47.59314 7.52309 885 ft 16 kts 64°
2026-05-05 18:39 47.59361 7.52458 885 ft 12 kts 64°
2026-05-05 18:39 47.59403 7.52588 884 ft 16 kts 65°
2026-05-05 18:39 47.59451 7.52743 885 ft 15 kts 64°
2026-05-05 18:40 47.59492 7.52870 885 ft 15 kts 64°
2026-05-05 18:40 47.59529 7.52951 885 ft 4 kts 343°
2026-05-05 18:40 47.59554 7.52921 885 ft 6 kts 324°
2026-05-05 18:40 47.59603 7.52885 885 ft 10 kts 335°
2026-05-05 18:41 47.59653 7.52849 885 ft 5 kts 333°
2026-05-05 18:41 47.59696 7.52821 885 ft 8 kts 335°
2026-05-05 18:41 47.59758 7.52778 885 ft 11 kts 334°
2026-05-05 18:41 47.59825 7.52731 885 ft 11 kts 336°
2026-05-05 18:42 47.59901 7.52678 885 ft 13 kts 336°
2026-05-05 18:42 47.59973 7.52627 885 ft 7 kts 335°
2026-05-05 18:42 47.60025 7.52591 885 ft 7 kts 333°
2026-05-05 18:42 47.60072 7.52559 885 ft 9 kts 336°
2026-05-05 18:43 47.60127 7.52520 885 ft 6 kts 334°
2026-05-05 18:43 47.60171 7.52489 885 ft 8 kts 336°
2026-05-05 18:43 47.60227 7.52478 885 ft 9 kts 20°
2026-05-05 18:43 47.60264 7.52501 885 ft 4 kts 34°
2026-05-05 18:44 47.60279 7.52534 885 ft 3 kts
2026-05-05 18:44 47.60288 7.52529 885 ft 0 kts 324°